Weather History for LHDC - November, 2011

Change the Weather History Date:

Tuesday, November 29, 2011

  Actual Average Record
Temperature  
Mean Temperature 34 °F -  
Max Temperature 43 °F 37 °F - ()
Min Temperature 23 °F 27 °F - ()
Degree Days  
Heating Degree Days 32    
Moisture  
Dew Point 28 °F    
Average Humidity 84    
Maximum Humidity 100    
Minimum Humidity 57    
Precipitation  
Precipitation 0.00 in 0.06 in - ()
Sea Level Pressure  
Sea Level Pressure 30.45 in    
Wind  
Wind Speed 5 mph ()    
Max Wind Speed 13 mph    
Max Gust Speed -    
Visibility 3.9 miles    
Events Fog    
T = Trace of Precipitation, MM = Missing Value Source: Averaged Metar Reports

Daily Weather History Graph

Daily Weather History Graph

Search for Another Location

Airport or City:

Trip Planner

Search our weather history database for the weather conditions in past years. The results will help you decide how hot, cold, wet, or windy it might be!

Date:

Astronomy

Nov. 29, 2011 Rise Set
Actual Time 6:57 AM CET 3:45 PM CET
Civil Twilight 6:22 AM CET 4:20 PM CET
Nautical Twilight 5:43 AM CET 4:59 PM CET
Astronomical Twilight 5:07 AM CET 5:35 PM CET
Moon 10:27 AM CET (11/29) 8:26 PM CET (11/29)
Length of Visible Light 9h 58m
Length of Day
8h 48m
Waxing Crescent, 22% of the Moon is Illuminated
Nov 29
Waxing Crescent
Dec 2
First Quarter
Dec 10
Full
Dec 18
Last Quarter
Dec 24
New

Hourly Weather History & Observations

Time (CET) Temp. Windchill Dew Point Humidity Pressure Visibility Wind Dir Wind Speed Gust Speed Precip Events Conditions
12:45 AM 32.0 °F 26.4 °F 30.2 °F 93% 30.48 in 3.7 mi East 5.8 mph - N/A   Overcast
1:00 AM 31 °F - 30 °F 94% 30.51 in 4 mi East 6.7 mph - -   Partly Cloudy
2:45 AM 30.2 °F 25.4 °F 28.4 °F 93% 30.48 in 4.3 mi NE 4.6 mph - N/A   Mostly Cloudy
3:45 AM 30.2 °F 21.9 °F 28.4 °F 93% 30.48 in 4.3 mi ENE 9.2 mph - N/A   Overcast
4:45 AM 32.0 °F 23.6 °F 30.2 °F 93% 30.48 in 5.0 mi East 10.4 mph - N/A   Overcast
5:15 AM 32.0 °F 23.6 °F 30.2 °F 93% 30.48 in 5.0 mi East 10.4 mph - N/A   Overcast
5:45 AM 32.0 °F 22.5 °F 30.2 °F 93% 30.48 in 6.2 mi East 12.7 mph - N/A   Overcast
6:00 AM - - - N/A% - 5.0 mi East 9.2 mph - N/A   Scattered Clouds
6:15 AM 30.2 °F 20.2 °F 28.4 °F 93% 30.48 in 6.2 mi East 12.7 mph - N/A   Overcast
7:15 AM 30.2 °F 23.4 °F 28.4 °F 93% 30.48 in 1.6 mi ESE 6.9 mph - N/A   Overcast
7:45 AM 30.2 °F 24.3 °F 28.4 °F 93% 30.48 in 1.7 mi East 5.8 mph - N/A   Overcast
8:15 AM 30.2 °F 24.3 °F 28.4 °F 93% 30.48 in 1.7 mi East 5.8 mph - N/A   Overcast
8:45 AM 30.2 °F 23.4 °F 28.4 °F 93% 30.48 in 1.7 mi ENE 6.9 mph - N/A   Overcast
9:00 AM - - - N/A% - 1.9 mi East 5.8 mph - N/A   Scattered Clouds
9:15 AM 30.2 °F 22.6 °F 28.4 °F 93% 30.48 in 1.7 mi NE 8.1 mph - N/A   Overcast
9:45 AM 32.0 °F 26.4 °F 28.4 °F 87% 30.48 in 1.7 mi NE 5.8 mph - N/A   Mostly Cloudy
10:15 AM 32.0 °F 28.7 °F 28.4 °F 87% 30.48 in 3.7 mi ENE 3.5 mph - N/A   Scattered Clouds
10:45 AM 33.8 °F 29.6 °F 30.2 °F 87% 30.48 in 4.3 mi NE 4.6 mph - N/A   Partly Cloudy
11:15 AM 35.6 °F 31.7 °F 30.2 °F 81% 30.48 in 5.0 mi ENE 4.6 mph - N/A   Partly Cloudy
11:45 AM 37.4 °F 33.8 °F 30.2 °F 75% 30.48 in - ENE 4.6 mph - N/A   Clear
12:00 PM - - - N/A% - 1.9 mi ENE 4.6 mph - N/A Fog Light Freezing Fog
12:15 PM 39.2 °F 37.0 °F 30.2 °F 70% 30.45 in - ENE 3.5 mph - N/A   Clear
12:45 PM 39.2 °F - 30.2 °F 70% 30.45 in - NE 2.3 mph - N/A   Clear
1:00 PM 40 °F - 30 °F 57% 30.46 in 9 mi NE 2.2 mph - -   Partly Cloudy
1:15 PM 41.0 °F - 30.2 °F 65% 30.45 in - East 2.3 mph - N/A   Clear
1:45 PM 42.8 °F - 30.2 °F 61% 30.42 in - Calm Calm - N/A   Clear
2:15 PM 41.0 °F - 30.2 °F 65% 30.42 in - ENE 1.2 mph - N/A   Clear
2:45 PM 41.0 °F - 30.2 °F 65% 30.42 in - Calm Calm - N/A   Clear
3:15 PM 41.0 °F - 30.2 °F 65% 30.42 in - Calm Calm - N/A   Clear
3:45 PM 39.2 °F - 30.2 °F 70% 30.42 in - SW 1.2 mph - N/A   Clear
4:15 PM 37.4 °F - 28.4 °F 70% 30.42 in - Calm Calm - N/A   Clear
4:45 PM 33.8 °F - 28.4 °F 81% 30.42 in - NNW 1.2 mph - N/A   Clear
5:15 PM 32.0 °F - 28.4 °F 87% 30.42 in - Calm Calm - N/A   Clear
5:45 PM 30.2 °F - 26.6 °F 86% 30.42 in 5.0 mi ESE 1.2 mph - N/A   Unknown
6:00 PM - - - N/A% - 1.9 mi Variable 2.3 mph - N/A   Mist
6:15 PM 28.4 °F - 26.6 °F 93% 30.42 in 5.0 mi ENE 2.3 mph - N/A   Unknown
6:45 PM 30.2 °F 26.7 °F 26.6 °F 86% 30.42 in 4.3 mi ENE 3.5 mph - N/A   Unknown
7:00 PM 29 °F - 27 °F 90% 30.44 in 4 mi ENE 4.5 mph - -   Partly Cloudy
7:15 PM 30.2 °F 25.4 °F 26.6 °F 86% 30.42 in 4.3 mi ENE 4.6 mph - N/A   Unknown
7:45 PM 28.4 °F 23.3 °F 24.8 °F 86% 30.42 in 4.3 mi ENE 4.6 mph - N/A   Unknown
8:15 PM 28.4 °F 24.6 °F 24.8 °F 86% 30.42 in 4.3 mi East 3.5 mph - N/A   Unknown
8:45 PM 28.4 °F - 24.8 °F 86% 30.42 in 4.3 mi ENE 2.3 mph - N/A   Unknown
9:45 PM 26.6 °F 20.0 °F 24.8 °F 93% 30.42 in 3.7 mi NE 5.8 mph - N/A   Unknown
10:45 PM 24.8 °F - 23.0 °F 93% 30.39 in 3.7 mi ENE 2.3 mph - N/A   Unknown
11:45 PM 23.0 °F - 23.0 °F 100% 30.39 in 3.7 mi NE 2.3 mph - N/A   Unknown